Preview of NWS' New Version of Forecast
This preview is not operational and should not be used for support decisions.

Regional Weather Roundup (RWR)

Issued by National Weather Service (NWS)

                            
000
ASUS45 KABQ 222310
RWRNM 
NEW MEXICO REGIONAL WEATHER ROUNDUP
NATIONAL WEATHER SERVICE ALBUQUERQUE NM
500 PM MDT MON JUL 22 2019

NOTE: "FAIR" MEANS FEW OR NO CLOUDS BELOW 12,000 FEET AGL WITH NO
       SIGNIFICANT WEATHER OR OBSTRUCTIONS TO VISION.

      THIS PRODUCT IS RELEASED AS TWO VERSIONS.  ONE VERSION NEAR
      THE TOP OF THE HOUR CONTAINING PRELIMINARY DATA FROM ALBUQUERQUE
      AND OTHER STATIONS.  A FINAL VERSION WITH ADDITIONAL DATA IS 
      ISSUED ABOUT 10 MINUTES AFTER THE HOUR.
 
NMZ501-503-504-510>518-230000-
NORTHWEST PLATEAU/NORTHCENTRAL MOUNTAINS
  
CITY           SKY/WX    TMP DP  RH WIND       PRES   REMARKS
FARMINGTON     FAIR      97  39  13 VRB6      30.17F                  
LOS ALAMOS       N/A     79  45  29 SE12G20   30.40F                  
SANTA FE       FAIR      82  49  31 SE22G28   30.34F                  
ANGEL FIRE     LGT RAIN  55  49  79 S8G23     30.53F                  

$$
NMZ402-403-502-505>509-230000-
WESTCENTRAL MOUNTAINS/SOUTHWEST MOUNTAINS
  
CITY           SKY/WX    TMP DP  RH WIND       PRES   REMARKS
GALLUP         FAIR      77  42  28 E24G35    30.32R                  
GRANTS         FAIR      89  44  20 SE20      30.32S                  
SILVER CITY    CLOUDY    78  55  44 N20       30.23F THUNDER          

$$
NMZ407-409-411-412-230000-
SOUTHERN DESERTS
  
CITY           SKY/WX    TMP DP  RH WIND       PRES   REMARKS
DEMING         FAIR      92  51  24 SE13G20   30.14F                  
LAS CRUCES     FAIR      91  50  25 SE16      30.18F                  
ALAMOGORDO     FAIR      75  63  64 NE6       30.19F                  
T OR C         FAIR      92  51  24 S20G31    30.16F                  

$$
NMZ519>523-230000-
CENTRAL VALLEYS/CENTRAL HIGHLANDS
  
CITY           SKY/WX    TMP DP  RH WIND       PRES   REMARKS
ALBUQUERQUE    PTSUNNY   87  50  27 SE15G23   30.23F                  
DOUBLE EAGLE   PTSUNNY   88  50  27 SE12G18   30.27F                  
MORIARTY ARPT  PTSUNNY   80  53  39 SE17G26   30.37F                  
CLINES CORNERS FAIR      74  54  49 SE15G22   30.43F                  
BELEN          FAIR      89  46  22 SE15G21   30.23F                  
SOCORRO        FAIR      90  48  23 E12G18    30.20F                  

$$
NMZ524>526-539-540-230000-
SOUTHCENTRAL MOUNTAINS
  
CITY           SKY/WX    TMP DP  RH WIND       PRES   REMARKS
RUIDOSO          N/A     72  55  56 E13       30.42                   

$$
NMZ527>531-230000-
NORTHEAST HIGHLANDS/NORTHEAST PLAINS
  
CITY           SKY/WX    TMP DP  RH WIND       PRES   REMARKS
LAS VEGAS      PTSUNNY   75  55  49 SE17      30.43F                  
RATON          CLOUDY    77  53  43 S21G26    30.37S                  
CLAYTON        FAIR      76  58  53 SE15      30.33F                  

$$
NMZ532>537-230000-
EASTCENTRAL PLAINS
  
CITY           SKY/WX    TMP DP  RH WIND       PRES   REMARKS
SANTA ROSA     FAIR      85  56  38 SE12      30.30F                  
TUCUMCARI      PTSUNNY   82  60  47 SE12      30.25F                  
CANNON AFB     CLOUDY    79  59  50 E10       30.28F                  
CLOVIS AIRPORT FAIR      82  58  43 NE13G18   30.27F                  

$$
NMZ028-029-538-230000-
SOUTHEAST PLAINS
  
CITY           SKY/WX    TMP DP  RH WIND       PRES   REMARKS
ROSWELL        PTSUNNY   86  61  42 N16       30.20F                  
ARTESIA        FAIR      81  64  57 NE14      30.22S                  
CARLSBAD       TSTM      65  64  97 N10       30.26R VSB 1/2          
HOBBS          PTSUNNY   84  61  45 NE10G17   30.22R                  


$$